Lamar, CO

8:32 AM MDT on April 29, 2017 (GMT -0600)
Lamar Municipal

Weather History for KLAA - May, 2013

Change the Weather History Date:

Thursday, May 30, 2013

  Actual Average Record
Temperature  
Mean Temperature 68 °F 67 °F  
Max Temperature 87 °F 83 °F 99 °F (1989)
Min Temperature 49 °F 51 °F 37 °F (1992)
Degree Days  
Heating Degree Days 0 2  
Month to date heating degree days 170 139  
Since 1 July heating degree days 5490 5539  
Cooling Degree Days 3 4  
Month to date cooling degree days 139 52  
Year to date cooling degree days 141 57  
Growing Degree Days 18 (Base 50)    
Moisture  
Dew Point 24 °F    
Average Humidity 38    
Maximum Humidity 71    
Minimum Humidity 4    
Precipitation  
Precipitation 0.00 in 0.10 in 1.48 in (1918)
Month to date precipitation 0.24  
Year to date precipitation 0.57  
Sea Level Pressure  
Sea Level Pressure 29.54 in    
Wind  
Wind Speed 13 mph (West)    
Max Wind Speed 36 mph    
Max Gust Speed 47 mph    
Visibility 10 miles    
Events      
T = Trace of Precipitation, MM = Missing Value Source: NWS Daily Summary

Daily Weather History Graph

Daily Weather History Graph

Search for Another Location

Airport or City:

Trip Planner

Search our weather history database for the weather conditions in past years. The results will help you decide how hot, cold, wet, or windy it might be!

Date:

Astronomy

May. 30, 2013 Rise Set
Actual Time 5:30 AM MDT 8:06 PM MDT
Civil Twilight 4:59 AM MDT 8:37 PM MDT
Nautical Twilight 4:21 AM MDT 9:15 PM MDT
Astronomical Twilight 3:38 AM MDT 9:58 PM MDT
Moon 12:12 AM MDT (5/30) 11:37 AM MDT (5/30)
Length of Visible Light 15h 37m
Length of Day
14h 36m
Waning Gibbous, 61% of the Moon is Illuminated
May 30
Waning Gibbous
May 31
Last Quarter
Jun 8
New
Jun 16
First Quarter
Jun 23
Full

Hourly Weather History & Observations

Time (MDT) Temp. Dew Point Humidity Pressure Visibility Wind Dir Wind Speed Gust Speed Precip Events Conditions
12:53 AM 54.0 °F 42.1 °F 64% 29.56 in 10.0 mi Calm Calm - N/A   Scattered Clouds
1:53 AM 54.0 °F 42.1 °F 64% 29.54 in 10.0 mi SW 6.9 mph - N/A   Partly Cloudy
2:53 AM 54.0 °F 43.0 °F 66% 29.52 in 10.0 mi South 5.8 mph - N/A   Partly Cloudy
3:53 AM 51.1 °F 42.1 °F 71% 29.52 in 10.0 mi SSW 10.4 mph - N/A   Clear
4:53 AM 50.0 °F 41.0 °F 71% 29.53 in 10.0 mi SSW 6.9 mph - N/A   Clear
5:53 AM 50.0 °F 41.0 °F 71% 29.56 in 10.0 mi WSW 3.5 mph - N/A   Clear
6:53 AM 57.9 °F 42.1 °F 56% 29.57 in 10.0 mi SW 4.6 mph - N/A   Clear
7:53 AM 66.0 °F 39.9 °F 38% 29.57 in 10.0 mi WSW 12.7 mph - N/A   Clear
8:53 AM 72.0 °F 33.1 °F 24% 29.56 in 10.0 mi West 15.0 mph - N/A   Clear
9:53 AM 77.0 °F 21.9 °F 13% 29.54 in 10.0 mi WNW 20.7 mph 28.8 mph N/A   Clear
10:53 AM 78.1 °F 19.9 °F 11% 29.54 in 10.0 mi WNW 20.7 mph 28.8 mph N/A   Clear
11:53 AM 80.1 °F 19.0 °F 10% 29.53 in 10.0 mi WNW 18.4 mph 27.6 mph N/A   Partly Cloudy
12:53 PM 82.0 °F 17.1 °F 9% 29.52 in 10.0 mi WNW 19.6 mph 28.8 mph N/A   Partly Cloudy
1:53 PM 84.0 °F 14.0 °F 7% 29.49 in 10.0 mi West 16.1 mph 24.2 mph N/A   Clear
2:53 PM 84.9 °F 9.0 °F 6% 29.47 in 10.0 mi WSW 19.6 mph 29.9 mph N/A   Clear
3:53 PM 87.1 °F 6.1 °F 5% 29.47 in 6.0 mi West 27.6 mph 47.2 mph N/A   Haze
4:53 PM 87.1 °F 3.9 °F 4% 29.46 in 10.0 mi WNW 26.5 mph 34.5 mph N/A   Clear
5:23 PM 86.0 °F 5.0 °F 5% 29.59 in 10.0 mi NNW 21.9 mph 36.8 mph N/A   Partly Cloudy
5:53 PM 84.9 °F 14.0 °F 7% 29.47 in 10.0 mi North 19.6 mph 24.2 mph N/A   Partly Cloudy
6:53 PM 82.0 °F 12.9 °F 7% 29.49 in 10.0 mi North 19.6 mph 24.2 mph N/A   Clear
7:53 PM 75.0 °F 15.1 °F 10% 29.54 in 10.0 mi North 15.0 mph - N/A   Clear
8:53 PM 70.0 °F 18.0 °F 14% 29.58 in 10.0 mi NE 11.5 mph - N/A   Clear
9:53 PM 64.9 °F 19.9 °F 18% 29.63 in 10.0 mi NE 4.6 mph - N/A   Clear
10:53 PM 59.0 °F 19.0 °F 21% 29.67 in 10.0 mi Calm Calm - N/A   Clear
11:53 PM 57.9 °F 19.9 °F 23% 29.67 in 9.0 mi WSW 3.5 mph - N/A   Clear